Time,TemperatureF,DewpointF,PressureIn,WindDirection,WindDirectionDegrees,WindSpeedMPH,WindSpeedGustMPH,Humidity,HourlyPrecipIn,Conditions,Clouds,dailyrainin,SolarRadiationWatts/m^2,SoftwareType,DateUTC
2013-02-27 00:01:00,13.0,4.0,-100.00,North,4,10.0,22.0,67,0.00,,,0.00,0.000000,,2013-02-27 07:01:00,
2013-02-27 00:12:00,13.0,4.0,-100.00,North,4,10.0,22.0,67,0.00,,,0.00,0.000000,,2013-02-27 07:12:00,
2013-02-27 00:21:00,13.0,4.0,-100.00,North,4,10.0,22.0,67,0.00,,,0.00,0.000000,,2013-02-27 07:21:00,
2013-02-27 00:52:00,12.0,4.0,-100.00,NNE,26,3.0,17.0,71,0.00,,,0.00,0.000000,,2013-02-27 07:52:00,
2013-02-27 01:01:00,12.0,4.0,-100.00,NNE,26,3.0,17.0,71,0.00,,,0.00,0.000000,,2013-02-27 08:01:00,
2013-02-27 01:11:00,12.0,4.0,-100.00,NNE,26,3.0,17.0,71,0.00,,,0.00,0.000000,,2013-02-27 08:11:00,
2013-02-27 01:21:00,12.0,4.0,-100.00,NNE,26,3.0,17.0,71,0.00,,,0.00,0.000000,,2013-02-27 08:21:00,
2013-02-27 01:52:00,12.0,4.0,-100.00,NNW,337,7.0,12.0,70,0.00,,,0.00,0.000000,,2013-02-27 08:52:00,
2013-02-27 02:01:00,12.0,4.0,-100.00,NNW,337,7.0,12.0,70,0.00,,,0.00,0.000000,,2013-02-27 09:01:00,
2013-02-27 02:11:00,12.0,4.0,-100.00,NNW,337,7.0,12.0,70,0.00,,,0.00,0.000000,,2013-02-27 09:11:00,
2013-02-27 02:21:00,12.0,4.0,-100.00,NNW,337,7.0,12.0,70,0.00,,,0.00,0.000000,,2013-02-27 09:21:00,
2013-02-27 02:52:00,10.0,3.0,-100.00,NNE,25,7.0,11.0,71,0.00,,,0.00,0.000000,,2013-02-27 09:52:00,
2013-02-27 03:01:00,10.0,3.0,-100.00,NNE,25,7.0,11.0,71,0.00,,,0.00,0.000000,,2013-02-27 10:01:00,
2013-02-27 03:12:00,10.0,3.0,-100.00,NNE,25,7.0,11.0,71,0.00,,,0.00,0.000000,,2013-02-27 10:12:00,
2013-02-27 03:21:00,10.0,3.0,-100.00,NNE,25,7.0,11.0,71,0.00,,,0.00,0.000000,,2013-02-27 10:21:00,
2013-02-27 03:52:00,10.0,3.0,-100.00,NNE,25,7.0,14.0,72,0.00,,,0.00,0.000000,,2013-02-27 10:52:00,
2013-02-27 04:01:00,10.0,3.0,-100.00,NNE,25,7.0,14.0,72,0.00,,,0.00,0.000000,,2013-02-27 11:01:00,
2013-02-27 04:11:00,10.0,3.0,-100.00,NNE,25,7.0,14.0,72,0.00,,,0.00,0.000000,,2013-02-27 11:11:00,
2013-02-27 04:21:00,10.0,3.0,-100.00,NNE,25,7.0,14.0,72,0.00,,,0.00,0.000000,,2013-02-27 11:21:00,
2013-02-27 04:42:00,9.0,2.0,-100.00,NNE,17,6.0,15.0,74,0.00,,,0.00,0.000000,,2013-02-27 11:42:00,
2013-02-27 04:52:00,9.0,2.0,-100.00,NNE,17,6.0,15.0,74,0.00,,,0.00,0.000000,,2013-02-27 11:52:00,
2013-02-27 05:02:00,9.0,2.0,-100.00,NNE,17,6.0,15.0,74,0.00,,,0.00,0.000000,,2013-02-27 12:02:00,
2013-02-27 05:12:00,9.0,2.0,-100.00,NNE,17,6.0,15.0,74,0.00,,,0.00,0.000000,,2013-02-27 12:12:00,
2013-02-27 05:21:00,9.0,2.0,-100.00,NNE,17,6.0,15.0,74,0.00,,,0.00,0.000000,,2013-02-27 12:21:00,
2013-02-27 05:42:00,9.0,1.0,-100.00,NNE,12,6.0,13.0,70,0.00,,,0.00,0.000000,,2013-02-27 12:42:00,
2013-02-27 05:52:00,9.0,1.0,-100.00,NNE,12,6.0,13.0,70,0.00,,,0.00,0.000000,,2013-02-27 12:52:00,
2013-02-27 06:02:00,9.0,1.0,-100.00,NNE,12,6.0,13.0,70,0.00,,,0.00,0.000000,,2013-02-27 13:02:00,
2013-02-27 06:11:00,9.0,1.0,-100.00,NNE,12,6.0,13.0,70,0.00,,,0.00,0.000000,,2013-02-27 13:11:00,
2013-02-27 06:21:00,9.0,1.0,-100.00,NNE,12,6.0,13.0,70,0.00,,,0.00,0.000000,,2013-02-27 13:21:00,
2013-02-27 06:52:00,8.0,0.0,-100.00,North,8,4.0,10.0,69,0.00,,,0.00,0.000000,,2013-02-27 13:52:00,
2013-02-27 07:02:00,8.0,0.0,-100.00,North,8,4.0,10.0,69,0.00,,,0.00,0.000000,,2013-02-27 14:02:00,
2013-02-27 07:11:00,8.0,0.0,-100.00,North,8,4.0,10.0,69,0.00,,,0.00,0.000000,,2013-02-27 14:11:00,
2013-02-27 07:21:00,8.0,0.0,-100.00,North,8,4.0,10.0,69,0.00,,,0.00,0.000000,,2013-02-27 14:21:00,
2013-02-27 07:52:00,10.0,2.0,-100.00,NNE,18,6.0,15.0,68,0.00,,,0.00,3.000000,,2013-02-27 14:52:00,
2013-02-27 08:02:00,10.0,2.0,-100.00,NNE,18,6.0,15.0,68,0.00,,,0.00,3.000000,,2013-02-27 15:02:00,
2013-02-27 08:12:00,10.0,2.0,-100.00,NNE,18,6.0,15.0,68,0.00,,,0.00,3.000000,,2013-02-27 15:12:00,
2013-02-27 08:22:00,10.0,2.0,-100.00,NNE,18,6.0,15.0,68,0.00,,,0.00,3.000000,,2013-02-27 15:22:00,
2013-02-27 08:42:00,16.0,3.0,-100.00,NNE,21,5.0,12.0,55,0.00,,,0.00,120.000000,,2013-02-27 15:42:00,
2013-02-27 08:52:00,16.0,3.0,-100.00,NNE,21,5.0,12.0,55,0.00,,,0.00,120.000000,,2013-02-27 15:52:00,
2013-02-27 09:01:00,16.0,3.0,-100.00,NNE,21,5.0,12.0,55,0.00,,,0.00,120.000000,,2013-02-27 16:01:00,
2013-02-27 09:11:00,16.0,3.0,-100.00,NNE,21,5.0,12.0,55,0.00,,,0.00,120.000000,,2013-02-27 16:11:00,
2013-02-27 09:21:00,16.0,3.0,-100.00,NNE,21,5.0,12.0,55,0.00,,,0.00,120.000000,,2013-02-27 16:21:00,
2013-02-27 09:52:00,20.0,4.0,-100.00,NNE,20,6.0,14.0,48,0.00,,,0.00,324.000000,,2013-02-27 16:52:00,
2013-02-27 10:01:00,20.0,4.0,-100.00,NNE,20,6.0,14.0,48,0.00,,,0.00,324.000000,,2013-02-27 17:01:00,
2013-02-27 10:11:00,20.0,4.0,-100.00,NNE,20,6.0,14.0,48,0.00,,,0.00,324.000000,,2013-02-27 17:11:00,
2013-02-27 10:21:00,20.0,4.0,-100.00,NNE,20,6.0,14.0,48,0.00,,,0.00,324.000000,,2013-02-27 17:21:00,
2013-02-27 10:52:00,22.0,3.0,-100.00,NNE,12,9.0,13.0,44,0.00,,,0.00,544.000000,,2013-02-27 17:52:00,
2013-02-27 11:01:00,22.0,3.0,-100.00,NNE,12,9.0,13.0,44,0.00,,,0.00,544.000000,,2013-02-27 18:01:00,
2013-02-27 11:11:00,22.0,3.0,-100.00,NNE,12,9.0,13.0,44,0.00,,,0.00,544.000000,,2013-02-27 18:11:00,
2013-02-27 11:21:00,22.0,3.0,-100.00,NNE,12,9.0,13.0,44,0.00,,,0.00,544.000000,,2013-02-27 18:21:00,
2013-02-27 11:52:00,26.0,4.0,-100.00,North,9,7.0,12.0,38,0.00,,,0.00,708.000000,,2013-02-27 18:52:00,
2013-02-27 12:01:00,26.0,4.0,-100.00,North,9,7.0,12.0,38,0.00,,,0.00,708.000000,,2013-02-27 19:01:00,
2013-02-27 12:11:00,26.0,4.0,-100.00,North,9,7.0,12.0,38,0.00,,,0.00,708.000000,,2013-02-27 19:11:00,
2013-02-27 12:21:00,26.0,4.0,-100.00,North,9,7.0,12.0,38,0.00,,,0.00,708.000000,,2013-02-27 19:21:00,
2013-02-27 12:42:00,28.0,5.0,-100.00,North,352,7.0,11.0,36,0.00,,,0.00,806.000000,,2013-02-27 19:42:00,
2013-02-27 12:52:00,28.0,5.0,-100.00,North,352,7.0,11.0,36,0.00,,,0.00,806.000000,,2013-02-27 19:52:00,
2013-02-27 13:01:00,28.0,5.0,-100.00,North,352,7.0,11.0,36,0.00,,,0.00,806.000000,,2013-02-27 20:01:00,
2013-02-27 13:11:00,28.0,5.0,-100.00,North,352,7.0,11.0,36,0.00,,,0.00,806.000000,,2013-02-27 20:11:00,
2013-02-27 13:21:00,28.0,5.0,-100.00,North,352,7.0,11.0,36,0.00,,,0.00,806.000000,,2013-02-27 20:21:00,
2013-02-27 13:52:00,29.0,4.0,-100.00,NNW,344,8.0,14.0,34,0.00,,,-99.99,841.000000,,2013-02-27 20:52:00,
2013-02-27 14:01:00,29.0,4.0,-100.00,NNW,344,8.0,14.0,34,0.00,,,-99.99,841.000000,,2013-02-27 21:01:00,
2013-02-27 14:11:00,29.0,4.0,-100.00,NNW,344,8.0,14.0,34,0.00,,,-99.99,841.000000,,2013-02-27 21:11:00,
2013-02-27 14:21:00,29.0,4.0,-100.00,NNW,344,8.0,14.0,34,0.00,,,-99.99,841.000000,,2013-02-27 21:21:00,
2013-02-27 14:42:00,28.0,5.0,-100.00,North,357,9.0,15.0,36,0.00,,,-99.99,812.000000,,2013-02-27 21:42:00,
2013-02-27 14:52:00,28.0,5.0,-100.00,North,357,9.0,15.0,36,0.00,,,-99.99,812.000000,,2013-02-27 21:52:00,
2013-02-27 15:01:00,28.0,5.0,-100.00,North,357,9.0,15.0,36,0.00,,,-99.99,812.000000,,2013-02-27 22:01:00,
2013-02-27 15:11:00,28.0,5.0,-100.00,North,357,9.0,15.0,36,0.00,,,-99.99,812.000000,,2013-02-27 22:11:00,
2013-02-27 15:21:00,28.0,5.0,-100.00,North,357,9.0,15.0,36,0.00,,,-99.99,812.000000,,2013-02-27 22:21:00,
2013-02-27 15:52:00,28.0,2.0,-100.00,North,357,9.0,14.0,32,0.00,,,0.00,718.000000,,2013-02-27 22:52:00,
2013-02-27 16:01:00,28.0,2.0,-100.00,North,357,9.0,14.0,32,0.00,,,0.00,718.000000,,2013-02-27 23:01:00,
2013-02-27 16:11:00,28.0,2.0,-100.00,North,357,9.0,14.0,32,0.00,,,0.00,718.000000,,2013-02-27 23:11:00,
2013-02-27 16:21:00,28.0,2.0,-100.00,North,357,9.0,14.0,32,0.00,,,0.00,718.000000,,2013-02-27 23:21:00,
2013-02-27 16:53:00,27.0,0.0,-100.00,NNW,348,11.0,16.0,31,0.00,,,0.00,542.000000,,2013-02-27 23:53:00,
2013-02-27 17:01:00,27.0,0.0,-100.00,NNW,348,11.0,16.0,31,0.00,,,0.00,542.000000,,2013-02-28 00:01:00,
2013-02-27 17:11:00,27.0,0.0,-100.00,NNW,348,11.0,16.0,31,0.00,,,0.00,542.000000,,2013-02-28 00:11:00,
2013-02-27 17:21:00,27.0,0.0,-100.00,NNW,348,11.0,16.0,31,0.00,,,0.00,542.000000,,2013-02-28 00:21:00,
2013-02-27 17:52:00,24.0,-4.0,-100.00,NNW,346,9.0,19.0,29,0.00,,,0.00,302.000000,,2013-02-28 00:52:00,
2013-02-27 18:01:00,24.0,-4.0,-100.00,NNW,346,9.0,19.0,29,0.00,,,0.00,302.000000,,2013-02-28 01:01:00,
2013-02-27 18:11:00,24.0,-4.0,-100.00,NNW,346,9.0,19.0,29,0.00,,,0.00,302.000000,,2013-02-28 01:11:00,
2013-02-27 18:21:00,24.0,-4.0,-100.00,NNW,346,9.0,19.0,29,0.00,,,0.00,302.000000,,2013-02-28 01:21:00,
2013-02-27 18:42:00,21.0,-5.0,-100.00,NNW,343,8.0,12.0,31,0.00,,,0.00,79.000000,,2013-02-28 01:42:00,
2013-02-27 18:52:00,21.0,-5.0,-100.00,NNW,343,8.0,12.0,31,0.00,,,0.00,79.000000,,2013-02-28 01:52:00,
2013-02-27 19:01:00,21.0,-5.0,-100.00,NNW,343,8.0,12.0,31,0.00,,,0.00,79.000000,,2013-02-28 02:01:00,
2013-02-27 20:01:00,17.0,-4.0,-100.00,North,358,4.0,11.0,39,0.00,,,0.00,2.000000,,2013-02-28 03:01:00,
2013-02-27 20:52:00,17.0,3.0,-100.00,NNE,30,5.0,10.0,53,0.00,,,0.00,0.000000,,2013-02-28 03:52:00,
2013-02-27 21:01:00,17.0,3.0,-100.00,NNE,30,5.0,10.0,53,0.00,,,0.00,0.000000,,2013-02-28 04:01:00,
2013-02-27 21:11:00,17.0,3.0,-100.00,NNE,30,5.0,10.0,53,0.00,,,0.00,0.000000,,2013-02-28 04:11:00,
2013-02-27 21:21:00,17.0,3.0,-100.00,NNE,30,5.0,10.0,53,0.00,,,0.00,0.000000,,2013-02-28 04:21:00,
2013-02-27 21:52:00,16.0,3.0,-100.00,NNE,13,5.0,9.0,56,0.00,,,0.00,0.000000,,2013-02-28 04:52:00,
2013-02-27 22:01:00,16.0,3.0,-100.00,NNE,13,5.0,9.0,56,0.00,,,0.00,0.000000,,2013-02-28 05:01:00,
2013-02-27 22:11:00,16.0,3.0,-100.00,NNE,13,5.0,9.0,56,0.00,,,0.00,0.000000,,2013-02-28 05:11:00,
2013-02-27 22:22:00,16.0,3.0,-100.00,NNE,13,5.0,9.0,56,0.00,,,0.00,0.000000,,2013-02-28 05:22:00,
2013-02-27 22:43:00,14.0,2.0,-100.00,NNE,17,6.0,9.0,59,0.00,,,0.00,0.000000,,2013-02-28 05:43:00,
2013-02-27 22:52:00,14.0,2.0,-100.00,NNE,17,6.0,9.0,59,0.00,,,0.00,0.000000,,2013-02-28 05:52:00,
2013-02-27 23:01:00,14.0,2.0,-100.00,NNE,17,6.0,9.0,59,0.00,,,0.00,0.000000,,2013-02-28 06:01:00,
2013-02-27 23:11:00,14.0,2.0,-100.00,NNE,17,6.0,9.0,59,0.00,,,0.00,0.000000,,2013-02-28 06:11:00,
2013-02-27 23:21:00,14.0,2.0,-100.00,NNE,17,6.0,9.0,59,0.00,,,0.00,0.000000,,2013-02-28 06:21:00,
2013-02-27 23:52:00,13.0,2.0,-100.00,NE,46,4.0,9.0,61,0.00,,,0.00,0.000000,,2013-02-28 06:52:00,